Flag for Germany Weather past 2 weeks in Aschaffenburg, Bavaria, Germany

Now
67 °F

Overcast.


Feels Like: 67 °F
Forecast: 46 / 59 °F
Wind: 5 mph from Northwest

Location: Frankfurt / M-Flughafen

Current Time: May 25, 2015 at 2:22:21 PM

Latest Report: May 25, 2015 at 2:00 PM


Visibility: 19 mi

Pressure: 29.93 "Hg

Humidity: 46%

Dew point: 45 °F

Location of AschaffenburgLocation

Historic Weather in Aschaffenburg — Graph

°F

Aschaffenburg temperature yesterday

Maximum temperature yesterday: 72 °F (at 3:00 PM)
Minimum temperature yesterday: 57 °F (at 6:00 AM)
Average temperature yesterday: 63 °F

Past Weeks' High & Low Weather Summary

 TemperatureHumidityPressure
High83 °F (May 12, 5:00 PM)98% (May 13, 10:00 PM)30.35 "Hg (May 13, 10:00 PM)
Low40 °F (May 21, 4:00 AM)25% (May 18, 3:00 PM)29.67 "Hg (May 19, 3:00 AM)
Average60 °F59%30.07 "Hg
* Reported May 10 1:00 PM — May 25 1:00 PM, Aschaffenburg, Weather by CustomWeather, © 2015

Note: Actual official high and low records may vary slightly from our data, if they occured in-between our weather recording intervals... More about our weather records

Advertising

Aschaffenburg weather history for previous 24 hours

 ConditionsComfort  
Time TempWeatherWind HumidityBarometerVisibility
1:00 PM
Mon, May 25
66 °FOvercast.2 mph42%29.94 "Hg19 mi
12:00 PM65 °FOvercast.2 mph52%29.95 "Hg17 mi
10:00 AM63 °FOvercast.2 mph63%29.97 "Hg14 mi
9:00 AM63 °FOvercast.1 mph66%29.98 "Hg12 mi
8:00 AM60 °FPartly sunny.1 mph76%29.98 "Hg12 mi
7:00 AM57 °FOvercast.1 mph88%29.98 "Hg16 mi
6:00 AM55 °FPartly sunny.1 mph92%29.99 "Hg14 mi
4:00 AM58 °FOvercast.1 mph84%29.99 "Hg16 mi
3:00 AM58 °FOvercast.1 mph83%30.00 "Hg19 mi
2:00 AM59 °FOvercast.1 mph81%30.01 "Hg19 mi
1:00 AM60 °FOvercast.1 mph77%30.01 "Hg22 mi
12:00 AM63 °FOvercast.1 mph68%30.02 "Hg22 mi
10:00 PM
Sun, May 24
64 °FOvercast.1 mph65%30.02 "Hg22 mi
9:00 PM66 °FOvercast.1 mph57%30.01 "Hg22 mi
8:00 PM68 °FOvercast.1 mph48%30.01 "Hg25 mi
7:00 PM69 °FOvercast.2 mph46%30.02 "Hg25 mi
6:00 PM69 °FOvercast.2 mph46%30.03 "Hg25 mi
4:00 PM69 °FOvercast.3 mph45%30.05 "Hg19 mi
3:00 PM72 °FPartly sunny.2 mph44%30.05 "Hg19 mi
2:00 PM70 °FOvercast.2 mph46%30.07 "Hg16 mi
Weather by CustomWeather, © 2015

See weather overviewHow to use our weather pages